Regional Weather Roundup
Issued by NWS

Home | Current Version | Previous Version | Text Only | Print | Product List | Glossary Off
Versions: 1 2 3 4 5 6 7 8 9 10 11 12 13 14 15 16 17 18 19 20 21 22 23 24 25 26 27 28 29 30 31 32 33 34 35 36 37 38 39 40 41 42 43 44 45 46 47 48 49 50

000
ASUS43 KDTX 010201
RWRMI
MICHIGAN HOURLY REGIONAL WEATHER ROUNDUP
NATIONAL WEATHER SERVICE DETROIT/PONTIAC MI
1000 PM EDT FRI JUL 31 2015

NOTE: "FAIR" INDICATES FEW OR NO CLOUDS BELOW 12,000 FEET WITH NO
SIGNIFICANT WEATHER AND/OR OBSTRUCTION TO VISIBILITY.

MIZ047>049-052>055-059>063-066>070-074>076-081>083-010300-
SOUTHEAST LOWER MICHIGAN

CITY           SKY/WX    TMP DP  RH WIND       PRES   REMARKS
ADRIAN         CLEAR     70  54  56 NW6       29.91R
ALMA           CLEAR     69  55  60 SW5       29.88R
ANN ARBOR      CLEAR     67  52  58 W6        29.89R
BAD AXE        CLOUDY    69  57  65 N7        29.85R
CARO           MOCLDY    69  56  63 N3        29.86R
DETROIT CITY   CLEAR     77  47  34 W7        29.86R
DETROIT        PTCLDY    75  49  39 W9        29.87R
FLINT          CLEAR     71  54  54 W7        29.87R
GROSSE ILE     CLEAR     75  50  41 W6        29.86R
HILLSDALE      CLEAR     70  51  52 W6        29.93R
HOWELL         CLEAR     71  52  51 W7        29.88S

CITY           SKY/WX    TMP DP  RH WIND       PRES   REMARKS
JACKSON        CLEAR     70  51  51 W8        29.91R
LAMBERTVILLE   CLEAR     74  54  49 CALM      29.90R
LANSING        CLEAR     72  53  51 W8        29.90R
LAPEER         FAIR      71  54  54 W5        29.86R
MASON          CLEAR     69  51  53 W5        29.90R
MONROE         CLEAR     70  54  56 W6        29.87R
MT. CLEMENS    CLEAR     76  51  42 W9        29.83R
PONTIAC        PTCLDY    73  55  53 W9        29.86R
PORT HOPE        N/A     71  61  70 NW5       29.83R
PORT HURON     PTCLDY    70  57  64 CALM      29.84R
TRI CITIES     LGT RAIN  69  59  70 N8        29.87R
MIDLAND        FAIR      63  61  91 CALM      29.86F
TROY           CLEAR     77  50  39 W7        29.88R
SAGINAW HB     MOCLDY    72  52  49 N18G28    29.87R
$$
MIZ043>046-050>051-056>058-064>065-071>073-077>080-010300-
SOUTHWEST LOWER MICHIGAN

CITY           SKY/WX    TMP DP  RH WIND       PRES   REMARKS
BATTLE CREEK   CLEAR     69  52  54 W7        29.93R
BENTON HARBOR  CLEAR     67  59  75 CALM      29.93S
BIG RAPIDS     MOCLDY    63  61  92 CALM      29.90S
COLDWATER      CLEAR     68  51  53 CALM      29.93S
FREMONT        CLOUDY    68  55  61 NW9       29.90R
HOLLAND        CLEAR     68  58  70 W5        29.92S
GRAND RAPIDS   PTCLDY    72  53  51 W8        29.91R
IONIA          FAIR      69  53  56 W8        29.89R
KALAMAZOO      CLEAR     68  53  58 W3        29.94R
LUDINGTON      PTCLDY    66  58  76 CALM      29.90R
MARSHALL       CLEAR     65  51  61 W6        29.92R
MOUNT PLEASANT MOCLDY    73  53  49 W6        29.87R
MUSKEGON       PTCLDY    71  59  65 W6        29.90R
SOUTH HAVEN    CLEAR     65  61  85 CALM      29.93R
$$
MIZ016>042-010300-
NORTHERN LOWER MICHIGAN

CITY           SKY/WX    TMP DP  RH WIND       PRES   REMARKS
ALPENA         PTCLDY    63  58  83 W3        29.84R
BEAVER ISLAND  CLEAR     66  55  69 CALM      29.86R
BELLAIRE       PTCLDY    62  55  77 CALM      29.86R
CADILLAC       PTCLDY    64  54  69 W3        29.89R
CHARLEVOIX     PTCLDY    65  60  85 W5        29.89R
FRANKFORT      CLEAR     62  59  88 CALM      29.88R
GAYLORD        PTCLDY    64  54  69 NW3       29.87R
GRAYLING       PTCLDY    63  52  67 CALM      29.88R
HARBOR SPRINGS CLEAR     64  56  76 W5        29.86R
HOUGHTON LAKE  PTCLDY    64  58  80 W6        29.88R
MANISTEE       CLEAR     63  59  88 CALM      29.89R
OSCODA         PTCLDY    61  56  84 W5        29.84R
PELLSTON       CLEAR     65  52  62 NW7       29.85R
ROGERS CITY    PTCLDY    65  59  81 CALM      29.84R
TRAVERSE CITY  PTCLDY    70  54  56 W5        29.85R
$$
MIZ007>008-015-010300-
EASTERN UPPER MICHIGAN

CITY           SKY/WX    TMP DP  RH WIND       PRES   REMARKS
KINROSS        PTCLDY    61  55  82 CALM      29.83S
MACKINAC ISLAN CLEAR     64  54  69 NW8       29.84R
NEWBERRY       CLEAR     59  53  80 W3        29.83S
S. S. MARIE    PTCLDY    59  53  80 NW6       29.82S
MUNISING         N/A     67  55  65 NE3       29.84R
$$
MIZ004>006-011>014-085-010300-
CENTRAL UPPER MICHIGAN

CITY           SKY/WX    TMP DP  RH WIND       PRES   REMARKS
ESCANABA       CLEAR     64  52  63 W3        29.86R
MENOMINEE      PTCLDY    70  50  49 CALM      29.88R
SAWYER-GWINN   CLEAR     66  50  55 W6        29.87R
$$
MIZ001>003-009>011-084-010300-
WESTERN UPPER MICHIGAN

CITY           SKY/WX    TMP DP  RH WIND       PRES   REMARKS
IRON MOUNTAIN  PTCLDY    66  51  58 NW8       29.88S
HOUGHTON       MOCLDY    64  53  67 W13       29.85S
COPPER HARBOR    N/A     68  52  56 N15G25    29.81S
IRONWOOD       PTCLDY    63  57  82 W5        29.89S
$$

ABBREVIATIONS USED IN REMARKS
   TC - TEMPERATURE IN CELSIUS
  WCI - WIND CHILL INDEX
   HX - HEAT INDEX
  VSB - VISIBILITY



USA.gov is the U.S. government's official web portal to all federal, state and local government web resources and services.